Time,TemperatureF,DewpointF,PressureIn,WindDirection,WindDirectionDegrees,WindSpeedMPH,WindSpeedGustMPH,Humidity,HourlyPrecipIn,Conditions,Clouds,dailyrainin,SoftwareType,DateUTC
2013-06-29 00:00:00,86.8,50.8,29.74,WSW,245,3.0,6.0,29,0.00,,---,0.00,VWS V14.01,2013-06-29 07:00:00,
2013-06-29 00:05:00,87.0,50.9,29.74,West,265,0.0,8.0,29,0.00,,---,0.00,VWS V14.01,2013-06-29 07:05:00,
2013-06-29 00:10:00,86.9,50.8,29.74,West,264,0.0,8.0,29,0.00,,---,0.00,VWS V14.01,2013-06-29 07:10:00,
2013-06-29 00:15:00,86.8,50.8,29.74,WNW,287,1.0,8.0,29,0.00,,---,0.00,VWS V14.01,2013-06-29 07:15:00,
2013-06-29 00:20:00,86.8,49.8,29.74,WNW,288,3.0,11.0,28,0.00,,---,0.00,VWS V14.01,2013-06-29 07:20:00,
2013-06-29 00:25:00,86.9,49.9,29.74,West,278,1.0,11.0,28,0.00,,---,0.00,VWS V14.01,2013-06-29 07:25:00,
2013-06-29 00:30:00,86.9,49.9,29.74,WNW,284,0.0,11.0,28,0.00,,---,0.00,VWS V14.01,2013-06-29 07:30:00,
2013-06-29 00:35:00,86.7,49.7,29.74,West,276,3.0,11.0,28,0.00,,---,0.00,VWS V14.01,2013-06-29 07:35:00,
2013-06-29 00:40:00,86.6,48.7,29.74,West,271,1.0,11.0,27,0.00,,---,0.00,VWS V14.01,2013-06-29 07:40:00,
2013-06-29 00:45:00,86.6,48.7,29.74,WSW,246,5.0,11.0,27,0.00,,---,0.00,VWS V14.01,2013-06-29 07:45:00,
2013-06-29 00:50:00,86.8,48.8,29.74,West,271,6.0,11.0,27,0.00,,---,0.00,VWS V14.01,2013-06-29 07:50:00,
2013-06-29 00:55:00,86.7,47.8,29.74,West,266,5.0,11.0,26,0.00,,---,0.00,VWS V14.01,2013-06-29 07:55:00,
2013-06-29 01:00:00,86.7,47.8,29.74,WNW,283,2.0,5.0,26,0.00,,---,0.00,VWS V14.01,2013-06-29 08:00:00,
2013-06-29 01:05:00,86.6,47.7,29.74,West,259,5.0,8.0,26,0.00,,---,0.00,VWS V14.01,2013-06-29 08:05:00,
2013-06-29 01:10:00,86.6,47.7,29.74,WNW,291,5.0,8.0,26,0.00,,---,0.00,VWS V14.01,2013-06-29 08:10:00,
2013-06-29 01:15:00,86.5,47.6,29.74,West,274,5.0,8.0,26,0.00,,---,0.00,VWS V14.01,2013-06-29 08:15:00,
2013-06-29 01:20:00,86.4,47.5,29.74,West,263,0.0,8.0,26,0.00,,---,0.00,VWS V14.01,2013-06-29 08:20:00,
2013-06-29 01:25:00,86.3,47.4,29.74,WNW,283,2.0,8.0,26,0.00,,---,0.00,VWS V14.01,2013-06-29 08:25:00,
2013-06-29 01:30:00,86.1,47.2,29.74,West,262,0.0,8.0,26,0.00,,---,0.00,VWS V14.01,2013-06-29 08:30:00,
2013-06-29 01:35:00,86.0,47.2,29.74,WNW,285,0.0,8.0,26,0.00,,---,0.00,VWS V14.01,2013-06-29 08:35:00,
2013-06-29 01:41:00,85.7,47.9,29.74,WSW,253,5.0,8.0,27,0.00,,---,0.00,VWS V14.01,2013-06-29 08:41:00,
2013-06-29 01:46:00,85.7,47.9,29.74,West,270,2.0,8.0,27,0.00,,---,0.00,VWS V14.01,2013-06-29 08:46:00,
2013-06-29 01:51:00,85.5,47.7,29.73,WSW,253,2.0,8.0,27,0.00,,---,0.00,VWS V14.01,2013-06-29 08:51:00,
2013-06-29 01:56:00,85.4,48.6,29.73,WSW,257,5.0,8.0,28,0.00,,---,0.00,VWS V14.01,2013-06-29 08:56:00,
2013-06-29 02:01:00,85.4,48.6,29.73,West,265,3.0,6.0,28,0.00,,---,0.00,VWS V14.01,2013-06-29 09:01:00,
2013-06-29 02:06:00,85.2,48.5,29.73,West,277,0.0,6.0,28,0.00,,---,0.00,VWS V14.01,2013-06-29 09:06:00,
2013-06-29 02:11:00,85.1,48.4,29.73,West,274,5.0,6.0,28,0.00,,---,0.00,VWS V14.01,2013-06-29 09:11:00,
2013-06-29 02:16:00,85.0,49.2,29.73,West,281,3.0,6.0,29,0.00,,---,0.00,VWS V14.01,2013-06-29 09:16:00,
2013-06-29 02:21:00,85.0,49.2,29.73,WSW,256,4.0,6.0,29,0.00,,---,0.00,VWS V14.01,2013-06-29 09:21:00,
2013-06-29 02:26:00,84.8,49.0,29.73,SW,235,5.0,6.0,29,0.00,,---,0.00,VWS V14.01,2013-06-29 09:26:00,
2013-06-29 02:31:00,84.7,49.0,29.73,West,277,4.0,6.0,29,0.00,,---,0.00,VWS V14.01,2013-06-29 09:31:00,
2013-06-29 02:36:00,84.4,48.7,29.73,WNW,294,4.0,6.0,29,0.00,,---,0.00,VWS V14.01,2013-06-29 09:36:00,
2013-06-29 02:41:00,84.3,49.5,29.73,West,280,0.0,6.0,30,0.00,,---,0.00,VWS V14.01,2013-06-29 09:41:00,
2013-06-29 02:46:00,84.0,49.3,29.73,WSW,257,0.0,6.0,30,0.00,,---,0.00,VWS V14.01,2013-06-29 09:46:00,
2013-06-29 02:51:00,83.8,49.1,29.73,WNW,283,1.0,6.0,30,0.00,,---,0.00,VWS V14.01,2013-06-29 09:51:00,
2013-06-29 02:56:00,83.7,49.9,29.73,West,266,0.0,6.0,31,0.00,,---,0.00,VWS V14.01,2013-06-29 09:56:00,
2013-06-29 03:01:00,83.5,49.7,29.73,WNW,285,0.0,1.0,31,0.00,,---,0.00,VWS V14.01,2013-06-29 10:01:00,
2013-06-29 03:06:00,83.4,49.6,29.73,WSW,257,0.0,4.0,31,0.00,,---,0.00,VWS V14.01,2013-06-29 10:06:00,
2013-06-29 03:11:00,83.4,49.6,29.73,WSW,252,0.0,4.0,31,0.00,,---,0.00,VWS V14.01,2013-06-29 10:11:00,
2013-06-29 03:16:00,83.4,50.5,29.73,West,276,0.0,4.0,32,0.00,,---,0.00,VWS V14.01,2013-06-29 10:16:00,
2013-06-29 03:21:00,83.3,50.4,29.73,West,278,0.0,4.0,32,0.00,,---,0.00,VWS V14.01,2013-06-29 10:21:00,
2013-06-29 03:26:00,83.2,50.3,29.73,SW,233,0.0,4.0,32,0.00,,---,0.00,VWS V14.01,2013-06-29 10:26:00,
2013-06-29 03:31:00,83.2,50.3,29.73,West,276,0.0,4.0,32,0.00,,---,0.00,VWS V14.01,2013-06-29 10:31:00,
2013-06-29 03:36:00,83.1,50.2,29.73,West,262,0.0,4.0,32,0.00,,---,0.00,VWS V14.01,2013-06-29 10:36:00,
2013-06-29 03:41:00,82.8,50.0,29.73,West,262,0.0,4.0,32,0.00,,---,0.00,VWS V14.01,2013-06-29 10:41:00,
2013-06-29 03:46:00,82.2,50.3,29.73,SW,226,0.0,4.0,33,0.00,,---,0.00,VWS V14.01,2013-06-29 10:46:00,
2013-06-29 03:51:00,81.8,49.9,29.72,West,263,0.0,4.0,33,0.00,,---,0.00,VWS V14.01,2013-06-29 10:51:00,
2013-06-29 03:56:00,82.3,50.3,29.72,WSW,249,0.0,4.0,33,0.00,,---,0.00,VWS V14.01,2013-06-29 10:56:00,
2013-06-29 04:01:00,82.3,50.3,29.72,SW,225,0.0,0.0,33,0.00,,---,0.00,VWS V14.01,2013-06-29 11:01:00,
2013-06-29 04:06:00,81.9,50.0,29.72,SW,225,0.0,0.0,33,0.00,,---,0.00,VWS V14.01,2013-06-29 11:06:00,
2013-06-29 04:11:00,81.1,50.9,29.73,SE,131,0.0,0.0,35,0.00,,---,0.00,VWS V14.01,2013-06-29 11:11:00,
2013-06-29 04:16:00,80.8,50.6,29.73,SE,137,0.0,0.0,35,0.00,,---,0.00,VWS V14.01,2013-06-29 11:16:00,
2013-06-29 04:21:00,80.7,50.5,29.72,SSW,195,0.0,0.0,35,0.00,,---,0.00,VWS V14.01,2013-06-29 11:21:00,
2013-06-29 04:26:00,80.4,50.3,29.72,SW,229,0.0,0.0,35,0.00,,---,0.00,VWS V14.01,2013-06-29 11:26:00,
2013-06-29 04:31:00,80.8,50.6,29.72,WSW,239,0.0,2.0,35,0.00,,---,0.00,VWS V14.01,2013-06-29 11:31:00,
2013-06-29 04:36:00,81.3,51.1,29.72,SW,217,0.0,2.0,35,0.00,,---,0.00,VWS V14.01,2013-06-29 11:36:00,
2013-06-29 04:41:00,80.5,51.1,29.72,SSW,197,0.0,2.0,36,0.00,,---,0.00,VWS V14.01,2013-06-29 11:41:00,
2013-06-29 04:46:00,79.9,50.6,29.72,SSW,194,0.0,2.0,36,0.00,,---,0.00,VWS V14.01,2013-06-29 11:46:00,
2013-06-29 04:51:00,79.8,51.2,29.72,SSW,194,0.0,2.0,37,0.00,,---,0.00,VWS V14.01,2013-06-29 11:51:00,
2013-06-29 04:56:00,80.2,50.8,29.72,WSW,256,0.0,2.0,36,0.00,,---,0.00,VWS V14.01,2013-06-29 11:56:00,
2013-06-29 05:01:00,80.8,50.6,29.73,West,264,0.0,0.0,35,0.00,,---,0.00,VWS V14.01,2013-06-29 12:01:00,
2013-06-29 05:06:00,80.8,50.6,29.73,West,266,0.0,0.0,35,0.00,,---,0.00,VWS V14.01,2013-06-29 12:06:00,
2013-06-29 05:11:00,80.1,51.5,29.73,SSE,155,0.0,0.0,37,0.00,,---,0.00,VWS V14.01,2013-06-29 12:11:00,
2013-06-29 05:16:00,79.5,51.0,29.73,SSE,155,0.0,0.0,37,0.00,,---,0.00,VWS V14.01,2013-06-29 12:16:00,
2013-06-29 05:21:00,79.3,51.5,29.73,ESE,119,0.0,0.0,38,0.00,,---,0.00,VWS V14.01,2013-06-29 12:21:00,
2013-06-29 05:26:00,78.3,51.3,29.73,ESE,119,0.0,0.0,39,0.00,,---,0.00,VWS V14.01,2013-06-29 12:26:00,
2013-06-29 05:31:00,77.1,51.6,29.73,ESE,117,0.0,0.0,41,0.00,,---,0.00,VWS V14.01,2013-06-29 12:31:00,
2013-06-29 05:36:00,77.2,51.7,29.73,ESE,117,0.0,0.0,41,0.00,,---,0.00,VWS V14.01,2013-06-29 12:36:00,
2013-06-29 05:41:00,76.6,51.8,29.73,ESE,117,0.0,0.0,42,0.00,,---,0.00,VWS V14.01,2013-06-29 12:41:00,
2013-06-29 05:46:00,76.3,51.5,29.73,SE,131,0.0,0.0,42,0.00,,---,0.00,VWS V14.01,2013-06-29 12:46:00,
2013-06-29 05:51:00,76.3,51.5,29.73,ESE,114,0.0,0.0,42,0.00,,---,0.00,VWS V14.01,2013-06-29 12:51:00,
2013-06-29 05:56:00,76.2,51.5,29.73,East,98,0.0,3.0,42,0.00,,---,0.00,VWS V14.01,2013-06-29 12:56:00,
2013-06-29 06:01:00,76.1,51.4,29.73,SE,125,0.0,0.0,42,0.00,,---,0.00,VWS V14.01,2013-06-29 13:01:00,
2013-06-29 06:06:00,76.4,51.0,29.73,South,169,0.0,2.0,41,0.00,,---,0.00,VWS V14.01,2013-06-29 13:06:00,
2013-06-29 06:11:00,76.7,51.2,29.73,SE,127,0.0,2.0,41,0.00,,---,0.00,VWS V14.01,2013-06-29 13:11:00,
2013-06-29 06:16:00,77.3,51.8,29.73,SE,136,0.0,2.0,41,0.00,,---,0.00,VWS V14.01,2013-06-29 13:16:00,
2013-06-29 06:21:00,77.4,51.2,29.73,SSE,155,0.0,2.0,40,0.00,,---,0.00,VWS V14.01,2013-06-29 13:21:00,
2013-06-29 06:26:00,77.6,51.4,29.73,SE,138,0.0,2.0,40,0.00,,---,0.00,VWS V14.01,2013-06-29 13:26:00,
2013-06-29 06:31:00,77.9,52.3,29.73,SE,145,0.0,2.0,41,0.00,,---,0.00,VWS V14.01,2013-06-29 13:31:00,
2013-06-29 06:36:00,78.4,52.1,29.73,SSE,155,0.0,2.0,40,0.00,,---,0.00,VWS V14.01,2013-06-29 13:36:00,
2013-06-29 06:41:00,79.1,52.0,29.73,SSE,160,0.0,2.0,39,0.00,,---,0.00,VWS V14.01,2013-06-29 13:41:00,
2013-06-29 06:46:00,79.6,52.5,29.73,SE,141,0.0,2.0,39,0.00,,---,0.00,VWS V14.01,2013-06-29 13:46:00,
2013-06-29 06:51:00,80.1,52.9,29.73,SSE,163,0.0,2.0,39,0.00,,---,0.00,VWS V14.01,2013-06-29 13:51:00,
2013-06-29 06:56:00,80.5,53.3,29.72,SSE,160,0.0,2.0,39,0.00,,---,0.00,VWS V14.01,2013-06-29 13:56:00,
2013-06-29 07:01:00,81.1,53.8,29.72,SE,136,0.0,0.0,39,0.00,,---,0.00,VWS V14.01,2013-06-29 14:01:00,
2013-06-29 07:07:00,81.9,53.8,29.72,ESE,115,0.0,0.0,38,0.00,,---,0.00,VWS V14.01,2013-06-29 14:07:00,
2013-06-29 07:12:00,82.8,53.9,29.72,ESE,105,0.0,0.0,37,0.00,,---,0.00,VWS V14.01,2013-06-29 14:12:00,
2013-06-29 07:17:00,83.2,54.2,29.72,East,86,0.0,0.0,37,0.00,,---,0.00,VWS V14.01,2013-06-29 14:17:00,
2013-06-29 07:22:00,82.9,54.7,29.72,East,80,1.0,4.0,38,0.00,,---,0.00,VWS V14.01,2013-06-29 14:22:00,
2013-06-29 07:27:00,82.8,54.6,29.72,East,87,2.0,5.0,38,0.00,,---,0.00,VWS V14.01,2013-06-29 14:27:00,
2013-06-29 07:32:00,83.1,54.2,29.72,SE,127,3.0,5.0,37,0.00,,---,0.00,VWS V14.01,2013-06-29 14:32:00,
2013-06-29 07:37:00,83.6,54.6,29.72,ENE,70,0.0,5.0,37,0.00,,---,0.00,VWS V14.01,2013-06-29 14:37:00,
2013-06-29 07:42:00,84.1,54.3,29.72,SE,132,0.0,5.0,36,0.00,,---,0.00,VWS V14.01,2013-06-29 14:42:00,
2013-06-29 07:47:00,85.1,54.4,29.73,ESE,114,3.0,5.0,35,0.00,,---,0.00,VWS V14.01,2013-06-29 14:47:00,
2013-06-29 07:52:00,86.1,54.5,29.73,SE,129,3.0,5.0,34,0.00,,---,0.00,VWS V14.01,2013-06-29 14:52:00,
2013-06-29 07:57:00,86.7,54.2,29.73,East,101,2.0,5.0,33,0.00,,---,0.00,VWS V14.01,2013-06-29 14:57:00,
2013-06-29 08:02:00,87.2,54.6,29.73,SE,124,0.0,1.0,33,0.00,,---,0.00,VWS V14.01,2013-06-29 15:02:00,
2013-06-29 08:07:00,87.9,54.4,29.73,SE,145,0.0,3.0,32,0.00,,---,0.00,VWS V14.01,2013-06-29 15:07:00,
2013-06-29 08:12:00,88.9,55.3,29.73,South,169,0.0,3.0,32,0.00,,---,0.00,VWS V14.01,2013-06-29 15:12:00,
2013-06-29 08:17:00,89.3,55.6,29.72,SSW,198,1.0,3.0,32,0.00,,---,0.00,VWS V14.01,2013-06-29 15:17:00,
2013-06-29 08:22:00,90.0,55.3,29.73,SSE,148,0.0,3.0,31,0.00,,---,0.00,VWS V14.01,2013-06-29 15:22:00,
2013-06-29 08:27:00,90.5,54.9,29.73,SSE,154,1.0,3.0,30,0.00,,---,0.00,VWS V14.01,2013-06-29 15:27:00,
2013-06-29 08:32:00,91.0,55.3,29.72,SSE,148,0.0,3.0,30,0.00,,---,0.00,VWS V14.01,2013-06-29 15:32:00,
2013-06-29 08:37:00,91.4,55.6,29.72,South,172,2.0,3.0,30,0.00,,---,0.00,VWS V14.01,2013-06-29 15:37:00,
2013-06-29 08:42:00,91.8,56.0,29.72,ESE,123,2.0,3.0,30,0.00,,---,0.00,VWS V14.01,2013-06-29 15:42:00,
2013-06-29 08:47:00,92.0,56.2,29.72,SE,138,3.0,4.0,30,0.00,,---,0.00,VWS V14.01,2013-06-29 15:47:00,
2013-06-29 08:52:00,92.4,55.6,29.72,East,98,0.0,4.0,29,0.00,,---,0.00,VWS V14.01,2013-06-29 15:52:00,
2013-06-29 08:57:00,93.0,55.1,29.72,SSE,166,3.0,5.0,28,0.00,,---,0.00,VWS V14.01,2013-06-29 15:57:00,
2013-06-29 09:02:00,93.0,55.1,29.72,ESE,108,1.0,3.0,28,0.00,,---,0.00,VWS V14.01,2013-06-29 16:02:00,
2013-06-29 09:07:00,93.4,54.5,29.72,SE,145,0.0,3.0,27,0.00,,---,0.00,VWS V14.01,2013-06-29 16:07:00,
2013-06-29 09:12:00,94.1,55.0,29.72,SE,128,0.0,3.0,27,0.00,,---,0.00,VWS V14.01,2013-06-29 16:12:00,
2013-06-29 09:17:00,94.7,55.6,29.72,SSW,201,0.0,4.0,27,0.00,,---,0.00,VWS V14.01,2013-06-29 16:17:00,
2013-06-29 09:22:00,95.0,54.8,29.72,West,270,0.0,4.0,26,0.00,,---,0.00,VWS V14.01,2013-06-29 16:22:00,
2013-06-29 09:27:00,95.3,55.0,29.71,West,276,0.0,4.0,26,0.00,,---,0.00,VWS V14.01,2013-06-29 16:27:00,
2013-06-29 09:32:00,96.2,54.7,29.71,South,171,0.0,4.0,25,0.00,,---,0.00,VWS V14.01,2013-06-29 16:32:00,
2013-06-29 09:37:00,96.9,55.3,29.71,WSW,242,0.0,4.0,25,0.00,,---,0.00,VWS V14.01,2013-06-29 16:37:00,
2013-06-29 09:42:00,96.4,52.6,29.71,WSW,252,1.0,4.0,23,0.00,,---,0.00,VWS V14.01,2013-06-29 16:42:00,
2013-06-29 09:47:00,96.5,53.8,29.71,SSW,195,0.0,4.0,24,0.00,,---,0.00,VWS V14.01,2013-06-29 16:47:00,
2013-06-29 09:52:00,96.7,52.8,29.71,SSW,204,3.0,5.0,23,0.00,,---,0.00,VWS V14.01,2013-06-29 16:52:00,
2013-06-29 09:57:00,97.4,53.4,29.71,SW,223,0.0,5.0,23,0.00,,---,0.00,VWS V14.01,2013-06-29 16:57:00,
2013-06-29 10:02:00,98.2,52.9,29.71,WNW,298,2.0,3.0,22,0.00,,---,0.00,VWS V14.01,2013-06-29 17:02:00,
2013-06-29 10:07:00,97.7,52.5,29.71,West,271,4.0,8.0,22,0.00,,---,0.00,VWS V14.01,2013-06-29 17:07:00,
2013-06-29 10:12:00,97.5,52.3,29.71,NW,322,0.0,8.0,22,0.00,,---,0.00,VWS V14.01,2013-06-29 17:12:00,
2013-06-29 10:17:00,97.5,52.3,29.70,NNE,30,2.0,8.0,22,0.00,,---,0.00,VWS V14.01,2013-06-29 17:17:00,
2013-06-29 10:22:00,97.7,52.5,29.70,ENE,57,0.0,8.0,22,0.00,,---,0.00,VWS V14.01,2013-06-29 17:22:00,
2013-06-29 10:27:00,98.0,52.7,29.71,NNW,328,0.0,8.0,22,0.00,,---,0.00,VWS V14.01,2013-06-29 17:27:00,
2013-06-29 10:32:00,97.8,52.5,29.71,NW,304,0.0,8.0,22,0.00,,---,0.00,VWS V14.01,2013-06-29 17:32:00,
2013-06-29 10:37:00,98.5,53.1,29.70,West,271,4.0,8.0,22,0.00,,---,0.00,VWS V14.01,2013-06-29 17:37:00,
2013-06-29 10:42:00,98.5,53.1,29.70,NW,309,0.0,8.0,22,0.00,,---,0.00,VWS V14.01,2013-06-29 17:42:00,
2013-06-29 10:47:00,98.5,51.9,29.70,North,359,2.0,9.0,21,0.00,,---,0.00,VWS V14.01,2013-06-29 17:47:00,
2013-06-29 10:52:00,98.5,53.1,29.70,WNW,295,5.0,9.0,22,0.00,,---,0.00,VWS V14.01,2013-06-29 17:52:00,
2013-06-29 10:57:00,98.4,51.8,29.70,NNW,338,0.0,9.0,21,0.00,,---,0.00,VWS V14.01,2013-06-29 17:57:00,
2013-06-29 11:02:00,98.8,52.1,29.70,WNW,295,6.0,11.0,21,0.00,,---,0.00,VWS V14.01,2013-06-29 18:02:00,
2013-06-29 11:07:00,98.9,52.2,29.70,North,355,4.0,11.0,21,0.00,,---,0.00,VWS V14.01,2013-06-29 18:07:00,
2013-06-29 11:12:00,99.1,52.4,29.70,West,266,4.0,11.0,21,0.00,,---,0.00,VWS V14.01,2013-06-29 18:12:00,
2013-06-29 11:17:00,99.4,51.3,29.69,NNW,330,5.0,11.0,20,0.00,,---,0.00,VWS V14.01,2013-06-29 18:17:00,
2013-06-29 11:22:00,99.8,51.6,29.69,NW,311,0.0,11.0,20,0.00,,---,0.00,VWS V14.01,2013-06-29 18:22:00,
2013-06-29 11:27:00,99.9,51.7,29.69,West,278,1.0,11.0,20,0.00,,---,0.00,VWS V14.01,2013-06-29 18:27:00,
2013-06-29 11:32:00,100.1,50.5,29.69,North,6,2.0,11.0,19,0.00,,---,0.00,VWS V14.01,2013-06-29 18:32:00,
2013-06-29 11:37:00,100.1,50.5,29.69,East,99,0.0,11.0,19,0.00,,---,0.00,VWS V14.01,2013-06-29 18:37:00,
2013-06-29 11:42:00,101.0,49.7,29.69,NE,34,11.0,11.0,18,0.00,,---,0.00,VWS V14.01,2013-06-29 18:42:00,
2013-06-29 11:47:00,100.8,49.6,29.69,WNW,301,4.0,14.0,18,0.00,,---,0.00,VWS V14.01,2013-06-29 18:47:00,
2013-06-29 11:52:00,101.3,50.0,29.69,ESE,121,0.0,14.0,18,0.00,,---,0.00,VWS V14.01,2013-06-29 18:52:00,
2013-06-29 11:57:00,101.9,50.5,29.68,North,7,4.0,14.0,18,0.00,,---,0.00,VWS V14.01,2013-06-29 18:57:00,
2013-06-29 12:03:00,101.7,48.8,29.68,NNW,344,3.0,10.0,17,0.00,,---,0.00,VWS V14.01,2013-06-29 19:03:00,
2013-06-29 12:08:00,101.8,51.8,29.68,NW,305,0.0,10.0,19,0.00,,---,0.00,VWS V14.01,2013-06-29 19:08:00,
2013-06-29 12:13:00,101.8,48.8,29.68,NE,34,2.0,10.0,17,0.00,,---,0.00,VWS V14.01,2013-06-29 19:13:00,
2013-06-29 12:18:00,102.0,49.0,29.68,East,94,2.0,11.0,17,0.00,,---,0.00,VWS V14.01,2013-06-29 19:18:00,
2013-06-29 12:23:00,102.6,47.9,29.68,WNW,288,5.0,11.0,16,0.00,,---,0.00,VWS V14.01,2013-06-29 19:23:00,
2013-06-29 12:28:00,102.9,49.7,29.67,West,277,1.0,11.0,17,0.00,,---,0.00,VWS V14.01,2013-06-29 19:28:00,
2013-06-29 12:33:00,103.1,48.3,29.67,SW,215,2.0,11.0,16,0.00,,---,0.00,VWS V14.01,2013-06-29 19:33:00,
2013-06-29 12:38:00,103.5,50.2,29.67,WSW,253,0.0,11.0,17,0.00,,---,0.00,VWS V14.01,2013-06-29 19:38:00,
2013-06-29 12:43:00,103.4,48.5,29.67,NNW,340,0.0,11.0,16,0.00,,---,0.00,VWS V14.01,2013-06-29 19:43:00,
2013-06-29 12:48:00,103.8,48.8,29.67,WSW,242,0.0,11.0,16,0.00,,---,0.00,VWS V14.01,2013-06-29 19:48:00,
2013-06-29 12:53:00,104.4,49.3,29.66,WSW,255,0.0,11.0,16,0.00,,---,0.00,VWS V14.01,2013-06-29 19:53:00,
2013-06-29 12:58:00,104.5,49.4,29.66,NNE,15,2.0,11.0,16,0.00,,---,0.00,VWS V14.01,2013-06-29 19:58:00,
2013-06-29 13:03:00,104.3,47.5,29.66,WNW,285,5.0,7.0,15,0.00,,---,0.00,VWS V14.01,2013-06-29 20:03:00,
2013-06-29 13:08:00,104.6,47.7,29.66,NNW,336,0.0,7.0,15,0.00,,---,0.00,VWS V14.01,2013-06-29 20:08:00,
2013-06-29 13:13:00,105.0,48.0,29.66,WNW,284,4.0,8.0,15,0.00,,---,0.00,VWS V14.01,2013-06-29 20:13:00,
2013-06-29 13:18:00,105.2,48.2,29.65,SW,232,1.0,8.0,15,0.00,,---,0.00,VWS V14.01,2013-06-29 20:18:00,
2013-06-29 13:23:00,105.7,48.6,29.65,NNW,347,1.0,8.0,15,0.00,,---,0.00,VWS V14.01,2013-06-29 20:23:00,
2013-06-29 13:28:00,105.8,46.8,29.65,ENE,64,0.0,8.0,14,0.00,,---,0.00,VWS V14.01,2013-06-29 20:28:00,
2013-06-29 13:33:00,106.2,49.0,29.65,ENE,75,0.0,8.0,15,0.00,,---,0.00,VWS V14.01,2013-06-29 20:33:00,
2013-06-29 13:38:00,107.1,47.9,29.65,North,11,0.0,8.0,14,0.00,,---,0.00,VWS V14.01,2013-06-29 20:38:00,
2013-06-29 13:43:00,107.3,44.0,29.65,South,191,1.0,8.0,12,0.00,,---,0.00,VWS V14.01,2013-06-29 20:43:00,
2013-06-29 13:48:00,107.4,46.1,29.65,SSW,207,0.0,10.0,13,0.00,,---,0.00,VWS V14.01,2013-06-29 20:48:00,
2013-06-29 13:53:00,107.1,43.8,29.65,SSW,212,4.0,10.0,12,0.00,,---,0.00,VWS V14.01,2013-06-29 20:53:00,
2013-06-29 13:58:00,106.6,43.4,29.65,SSE,153,4.0,13.0,12,0.00,,---,0.00,VWS V14.01,2013-06-29 20:58:00,
2013-06-29 14:03:00,107.2,46.0,29.64,SW,215,12.0,15.0,13,0.00,,---,0.00,VWS V14.01,2013-06-29 21:03:00,
2013-06-29 14:08:00,106.3,43.2,29.64,SW,229,7.0,16.0,12,0.00,,---,0.00,VWS V14.01,2013-06-29 21:08:00,
2013-06-29 14:13:00,106.7,43.5,29.64,SSW,201,2.0,16.0,12,0.00,,---,0.00,VWS V14.01,2013-06-29 21:13:00,
2013-06-29 14:18:00,106.4,43.3,29.64,South,181,13.0,16.0,12,0.00,,---,0.00,VWS V14.01,2013-06-29 21:18:00,
2013-06-29 14:23:00,106.4,45.4,29.64,South,184,12.0,16.0,13,0.00,,---,0.00,VWS V14.01,2013-06-29 21:23:00,
2013-06-29 14:28:00,106.4,43.3,29.64,South,181,3.0,16.0,12,0.00,,---,0.00,VWS V14.01,2013-06-29 21:28:00,
2013-06-29 14:33:00,106.9,43.6,29.63,WSW,242,4.0,16.0,12,0.00,,---,0.00,VWS V14.01,2013-06-29 21:33:00,
2013-06-29 14:38:00,107.0,43.7,29.64,South,184,7.0,16.0,12,0.00,,---,0.00,VWS V14.01,2013-06-29 21:38:00,
2013-06-29 14:43:00,106.6,43.4,29.63,SW,229,12.0,16.0,12,0.00,,---,0.00,VWS V14.01,2013-06-29 21:43:00,
2013-06-29 14:48:00,106.0,43.0,29.63,SSW,208,9.0,16.0,12,0.00,,---,0.00,VWS V14.01,2013-06-29 21:48:00,
2013-06-29 14:53:00,106.6,45.5,29.63,South,179,6.0,16.0,13,0.00,,---,0.00,VWS V14.01,2013-06-29 21:53:00,
2013-06-29 14:58:00,106.8,45.7,29.63,WSW,250,9.0,16.0,13,0.00,,---,0.00,VWS V14.01,2013-06-29 21:58:00,
2013-06-29 15:03:00,106.6,47.5,29.63,SSW,213,7.0,16.0,14,0.00,,---,0.00,VWS V14.01,2013-06-29 22:03:00,
2013-06-29 15:08:00,106.4,47.3,29.63,WSW,249,14.0,16.0,14,0.00,,---,0.00,VWS V14.01,2013-06-29 22:08:00,
2013-06-29 15:13:00,106.2,47.2,29.62,SW,222,6.0,16.0,14,0.00,,---,0.00,VWS V14.01,2013-06-29 22:13:00,
2013-06-29 15:18:00,106.3,49.1,29.62,WSW,246,6.0,16.0,15,0.00,,---,0.00,VWS V14.01,2013-06-29 22:18:00,
2013-06-29 15:23:00,106.2,49.0,29.62,South,170,5.0,16.0,15,0.00,,---,0.00,VWS V14.01,2013-06-29 22:23:00,
2013-06-29 15:28:00,106.2,49.0,29.62,SSW,198,7.0,19.0,15,0.00,,---,0.00,VWS V14.01,2013-06-29 22:28:00,
2013-06-29 15:33:00,105.7,48.6,29.62,SSE,150,0.0,19.0,15,0.00,,---,0.00,VWS V14.01,2013-06-29 22:33:00,
2013-06-29 15:38:00,106.0,50.6,29.62,SSW,208,3.0,19.0,16,0.00,,---,0.00,VWS V14.01,2013-06-29 22:38:00,
2013-06-29 15:43:00,106.0,47.0,29.62,SW,214,10.0,19.0,14,0.00,,---,0.00,VWS V14.01,2013-06-29 22:43:00,
2013-06-29 15:48:00,105.6,48.5,29.62,WNW,295,6.0,19.0,15,0.00,,---,0.00,VWS V14.01,2013-06-29 22:48:00,
2013-06-29 15:54:00,105.6,48.5,29.62,WSW,246,3.0,19.0,15,0.00,,---,0.00,VWS V14.01,2013-06-29 22:54:00,
2013-06-29 15:59:00,105.7,48.6,29.61,WSW,253,10.0,19.0,15,0.00,,---,0.00,VWS V14.01,2013-06-29 22:59:00,
2013-06-29 16:04:00,105.7,48.6,29.61,WSW,243,3.0,14.0,15,0.00,,---,0.00,VWS V14.01,2013-06-29 23:04:00,
2013-06-29 16:09:00,105.7,46.8,29.61,WNW,285,16.0,17.0,14,0.00,,---,0.00,VWS V14.01,2013-06-29 23:09:00,
2013-06-29 16:14:00,105.0,48.0,29.61,WNW,298,7.0,17.0,15,0.00,,---,0.00,VWS V14.01,2013-06-29 23:14:00,
2013-06-29 16:19:00,105.0,48.0,29.61,West,266,15.0,17.0,15,0.00,,---,0.00,VWS V14.01,2013-06-29 23:19:00,
2013-06-29 16:24:00,104.8,47.9,29.61,NW,309,5.0,17.0,15,0.00,,---,0.00,VWS V14.01,2013-06-29 23:24:00,
2013-06-29 16:29:00,104.7,47.8,29.61,WSW,244,12.0,17.0,15,0.00,,---,0.00,VWS V14.01,2013-06-29 23:29:00,
2013-06-29 16:34:00,104.3,47.5,29.61,WNW,284,11.0,18.0,15,0.00,,---,0.00,VWS V14.01,2013-06-29 23:34:00,
2013-06-29 16:39:00,104.3,47.5,29.61,West,266,7.0,18.0,15,0.00,,---,0.00,VWS V14.01,2013-06-29 23:39:00,
2013-06-29 16:44:00,104.0,49.0,29.61,WSW,250,15.0,18.0,16,0.00,,---,0.00,VWS V14.01,2013-06-29 23:44:00,
2013-06-29 16:49:00,104.1,49.1,29.61,SW,229,9.0,18.0,16,0.00,,---,0.00,VWS V14.01,2013-06-29 23:49:00,
2013-06-29 16:54:00,103.8,48.8,29.61,WSW,242,15.0,18.0,16,0.00,,---,0.00,VWS V14.01,2013-06-29 23:54:00,
2013-06-29 16:59:00,103.7,48.8,29.61,SW,229,6.0,18.0,16,0.00,,---,0.00,VWS V14.01,2013-06-29 23:59:00,
2013-06-29 17:04:00,103.5,48.6,29.61,SW,219,9.0,16.0,16,0.00,,---,0.00,VWS V14.01,2013-06-30 00:04:00,
2013-06-29 17:09:00,103.3,50.0,29.60,South,191,12.0,18.0,17,0.00,,---,0.00,VWS V14.01,2013-06-30 00:09:00,
2013-06-29 17:14:00,103.2,51.5,29.61,SW,232,12.0,20.0,18,0.00,,---,0.00,VWS V14.01,2013-06-30 00:14:00,
2013-06-29 17:19:00,102.7,51.1,29.60,SW,224,4.0,20.0,18,0.00,,---,0.00,VWS V14.01,2013-06-30 00:19:00,
2013-06-29 17:24:00,102.5,51.0,29.60,SW,226,11.0,20.0,18,0.00,,---,0.00,VWS V14.01,2013-06-30 00:24:00,
2013-06-29 17:29:00,102.4,52.3,29.60,West,267,4.0,20.0,19,0.00,,---,0.00,VWS V14.01,2013-06-30 00:29:00,
2013-06-29 17:34:00,102.1,50.6,29.60,SW,231,8.0,20.0,18,0.00,,---,0.00,VWS V14.01,2013-06-30 00:34:00,
2013-06-29 17:39:00,101.9,51.9,29.60,WSW,246,9.0,20.0,19,0.00,,---,0.00,VWS V14.01,2013-06-30 00:39:00,
2013-06-29 17:44:00,101.7,50.3,29.60,WSW,255,14.0,20.0,18,0.00,,---,0.00,VWS V14.01,2013-06-30 00:44:00,
2013-06-29 17:49:00,101.6,50.2,29.60,WSW,241,7.0,20.0,18,0.00,,---,0.00,VWS V14.01,2013-06-30 00:49:00,
2013-06-29 17:54:00,101.3,51.4,29.60,West,269,4.0,20.0,19,0.00,,---,0.00,VWS V14.01,2013-06-30 00:54:00,
2013-06-29 17:59:00,101.3,51.4,29.60,South,178,13.0,20.0,19,0.00,,---,0.00,VWS V14.01,2013-06-30 00:59:00,
2013-06-29 18:04:00,101.2,51.4,29.60,WSW,252,3.0,17.0,19,0.00,,---,0.00,VWS V14.01,2013-06-30 01:04:00,
2013-06-29 18:09:00,100.9,51.1,29.60,SW,231,3.0,17.0,19,0.00,,---,0.00,VWS V14.01,2013-06-30 01:09:00,
2013-06-29 18:14:00,100.7,49.5,29.60,West,260,11.0,17.0,18,0.00,,---,0.00,VWS V14.01,2013-06-30 01:14:00,
2013-06-29 18:19:00,100.3,50.6,29.60,South,184,3.0,19.0,19,0.00,,---,0.00,VWS V14.01,2013-06-30 01:19:00,
2013-06-29 18:24:00,100.2,49.1,29.61,West,261,4.0,19.0,18,0.00,,---,0.00,VWS V14.01,2013-06-30 01:24:00,
2013-06-29 18:29:00,100.1,50.5,29.61,WSW,238,8.0,19.0,19,0.00,,---,0.00,VWS V14.01,2013-06-30 01:29:00,
2013-06-29 18:34:00,99.9,48.8,29.60,WSW,243,6.0,19.0,18,0.00,,---,0.00,VWS V14.01,2013-06-30 01:34:00,
2013-06-29 18:39:00,99.7,48.7,29.61,SW,224,6.0,19.0,18,0.00,,---,0.00,VWS V14.01,2013-06-30 01:39:00,
2013-06-29 18:44:00,99.5,48.5,29.61,WSW,245,7.0,19.0,18,0.00,,---,0.00,VWS V14.01,2013-06-30 01:44:00,
2013-06-29 18:49:00,99.4,49.9,29.61,SW,229,0.0,19.0,19,0.00,,---,0.00,VWS V14.01,2013-06-30 01:49:00,
2013-06-29 18:54:00,99.2,48.3,29.61,SW,235,1.0,19.0,18,0.00,,---,0.00,VWS V14.01,2013-06-30 01:54:00,
2013-06-29 18:59:00,98.9,46.5,29.61,SW,233,13.0,13.0,17,0.00,,---,0.00,VWS V14.01,2013-06-30 01:59:00,
2013-06-29 19:04:00,98.6,46.3,29.62,SW,225,0.0,13.0,17,0.00,,---,0.00,VWS V14.01,2013-06-30 02:04:00,
2013-06-29 19:09:00,98.4,44.5,29.62,SW,226,0.0,13.0,16,0.00,,---,0.00,VWS V14.01,2013-06-30 02:09:00,
2013-06-29 19:14:00,98.2,46.0,29.61,SW,235,0.0,13.0,17,0.00,,---,0.00,VWS V14.01,2013-06-30 02:14:00,
2013-06-29 19:19:00,97.9,44.1,29.62,SW,224,7.0,13.0,16,0.00,,---,0.00,VWS V14.01,2013-06-30 02:19:00,
2013-06-29 19:24:00,97.7,45.6,29.62,NW,304,0.0,13.0,17,0.00,,---,0.00,VWS V14.01,2013-06-30 02:24:00,
2013-06-29 19:29:00,97.5,43.8,29.62,West,274,3.0,13.0,16,0.00,,---,0.00,VWS V14.01,2013-06-30 02:29:00,
2013-06-29 19:34:00,97.2,45.2,29.62,WNW,298,0.0,13.0,17,0.00,,---,0.00,VWS V14.01,2013-06-30 02:34:00,
2013-06-29 19:39:00,97.0,46.5,29.62,West,262,0.0,13.0,18,0.00,,---,0.00,VWS V14.01,2013-06-30 02:39:00,
2013-06-29 19:44:00,96.8,44.8,29.62,NNW,329,1.0,13.0,17,0.00,,---,0.00,VWS V14.01,2013-06-30 02:44:00,
2013-06-29 19:49:00,96.2,47.3,29.62,WNW,298,7.0,13.0,19,0.00,,---,0.00,VWS V14.01,2013-06-30 02:49:00,
2013-06-29 19:54:00,95.0,52.6,29.62,WNW,294,6.0,13.0,24,0.00,,---,0.00,VWS V14.01,2013-06-30 02:54:00,
2013-06-29 19:59:00,94.0,52.9,29.63,WNW,283,12.0,16.0,25,0.00,,---,0.00,VWS V14.01,2013-06-30 02:59:00,
2013-06-29 20:04:00,93.5,52.4,29.63,NW,306,12.0,16.0,25,0.00,,---,0.00,VWS V14.01,2013-06-30 03:04:00,
2013-06-29 20:09:00,93.1,53.2,29.63,WNW,298,11.0,23.0,26,0.00,,---,0.00,VWS V14.01,2013-06-30 03:09:00,
2013-06-29 20:14:00,92.7,52.8,29.63,WNW,293,11.0,23.0,26,0.00,,---,0.00,VWS V14.01,2013-06-30 03:14:00,
2013-06-29 20:19:00,92.4,52.6,29.63,West,279,10.0,23.0,26,0.00,,---,0.00,VWS V14.01,2013-06-30 03:19:00,
2013-06-29 20:24:00,92.2,52.4,29.63,West,273,9.0,23.0,26,0.00,,---,0.00,VWS V14.01,2013-06-30 03:24:00,
2013-06-29 20:29:00,92.0,52.2,29.63,WNW,293,5.0,23.0,26,0.00,,---,0.00,VWS V14.01,2013-06-30 03:29:00,
2013-06-29 20:34:00,91.8,52.1,29.63,WNW,298,7.0,23.0,26,0.00,,---,0.00,VWS V14.01,2013-06-30 03:34:00,
2013-06-29 20:39:00,91.6,51.9,29.63,WNW,294,7.0,23.0,26,0.00,,---,0.00,VWS V14.01,2013-06-30 03:39:00,
2013-06-29 20:44:00,91.5,51.8,29.63,WNW,283,7.0,23.0,26,0.00,,---,0.00,VWS V14.01,2013-06-30 03:44:00,
2013-06-29 20:50:00,91.3,52.7,29.63,WNW,284,11.0,23.0,27,0.00,,---,0.00,VWS V14.01,2013-06-30 03:50:00,
2013-06-29 20:55:00,91.2,51.6,29.63,WNW,285,7.0,23.0,26,0.00,,---,0.00,VWS V14.01,2013-06-30 03:55:00,
2013-06-29 21:00:00,91.1,52.5,29.64,WNW,290,7.0,8.0,27,0.00,,---,0.00,VWS V14.01,2013-06-30 04:00:00,
2013-06-29 21:01:00,91.0,52.4,29.64,WNW,290,9.0,15.0,27,0.00,,---,0.00,VWS V14.01,2013-06-30 04:01:00,
2013-06-29 21:02:00,91.0,52.4,29.64,West,266,4.0,15.0,27,0.00,,---,0.00,VWS V14.01,2013-06-30 04:02:00,
2013-06-29 21:03:00,91.0,52.4,29.64,West,271,7.0,15.0,27,0.00,,---,0.00,VWS V14.01,2013-06-30 04:03:00,
2013-06-29 21:07:00,90.8,52.2,29.64,WNW,285,5.0,15.0,27,0.00,,---,0.00,VWS V14.01,2013-06-30 04:07:00,
2013-06-29 21:12:00,90.6,52.1,29.64,NW,314,4.0,15.0,27,0.00,,---,0.00,VWS V14.01,2013-06-30 04:12:00,
2013-06-29 21:17:00,90.2,51.7,29.64,WNW,284,4.0,15.0,27,0.00,,---,0.00,VWS V14.01,2013-06-30 04:17:00,
2013-06-29 21:22:00,90.0,50.5,29.64,WSW,246,5.0,15.0,26,0.00,,---,0.00,VWS V14.01,2013-06-30 04:22:00,
2013-06-29 21:27:00,89.8,50.4,29.64,West,280,1.0,15.0,26,0.00,,---,0.00,VWS V14.01,2013-06-30 04:27:00,
2013-06-29 21:32:00,89.7,50.3,29.64,WSW,239,0.0,15.0,26,0.00,,---,0.00,VWS V14.01,2013-06-30 04:32:00,
2013-06-29 21:37:00,89.7,49.2,29.64,West,271,2.0,15.0,25,0.00,,---,0.00,VWS V14.01,2013-06-30 04:37:00,
2013-06-29 21:42:00,89.5,49.1,29.64,West,281,0.0,15.0,25,0.00,,---,0.00,VWS V14.01,2013-06-30 04:42:00,
2013-06-29 21:47:00,89.4,49.0,29.65,SW,225,5.0,15.0,25,0.00,,---,0.00,VWS V14.01,2013-06-30 04:47:00,
2013-06-29 21:52:00,89.5,49.1,29.65,WSW,258,3.0,15.0,25,0.00,,---,0.00,VWS V14.01,2013-06-30 04:52:00,
2013-06-29 21:57:00,89.6,49.2,29.65,SW,221,0.0,15.0,25,0.00,,---,0.00,VWS V14.01,2013-06-30 04:57:00,
2013-06-29 22:02:00,89.7,49.2,29.65,WNW,283,2.0,8.0,25,0.00,,---,0.00,VWS V14.01,2013-06-30 05:02:00,
2013-06-29 22:07:00,89.7,50.3,29.65,West,269,6.0,10.0,26,0.00,,---,0.00,VWS V14.01,2013-06-30 05:07:00,
2013-06-29 22:12:00,89.7,51.3,29.65,WSW,246,0.0,10.0,27,0.00,,---,0.00,VWS V14.01,2013-06-30 05:12:00,
2013-06-29 22:17:00,89.6,51.2,29.65,WSW,252,3.0,10.0,27,0.00,,---,0.00,VWS V14.01,2013-06-30 05:17:00,
2013-06-29 22:22:00,89.7,52.3,29.64,SW,224,0.0,10.0,28,0.00,,---,0.00,VWS V14.01,2013-06-30 05:22:00,
2013-06-29 22:27:00,89.6,52.2,29.64,West,281,6.0,10.0,28,0.00,,---,0.00,VWS V14.01,2013-06-30 05:27:00,
2013-06-29 22:32:00,89.6,52.2,29.65,WNW,297,1.0,10.0,28,0.00,,---,0.00,VWS V14.01,2013-06-30 05:32:00,
2013-06-29 22:37:00,89.6,52.2,29.64,WNW,297,2.0,10.0,28,0.00,,---,0.00,VWS V14.01,2013-06-30 05:37:00,
2013-06-29 22:42:00,89.6,52.2,29.64,West,260,0.0,10.0,28,0.00,,---,0.00,VWS V14.01,2013-06-30 05:42:00,
2013-06-29 22:47:00,89.4,52.0,29.65,West,280,1.0,10.0,28,0.00,,---,0.00,VWS V14.01,2013-06-30 05:47:00,
2013-06-29 22:52:00,89.5,52.1,29.65,WNW,293,1.0,10.0,28,0.00,,---,0.00,VWS V14.01,2013-06-30 05:52:00,
2013-06-29 22:57:00,89.4,52.0,29.65,NW,325,1.0,10.0,28,0.00,,---,0.00,VWS V14.01,2013-06-30 05:57:00,
2013-06-29 23:02:00,89.3,52.0,29.65,WNW,293,1.0,7.0,28,0.00,,---,0.00,VWS V14.01,2013-06-30 06:02:00,
2013-06-29 23:07:00,89.3,52.0,29.65,WNW,284,0.0,7.0,28,0.00,,---,0.00,VWS V14.01,2013-06-30 06:07:00,
2013-06-29 23:12:00,89.3,52.0,29.65,WNW,295,0.0,7.0,28,0.00,,---,0.00,VWS V14.01,2013-06-30 06:12:00,
2013-06-29 23:17:00,89.3,51.0,29.65,WNW,297,0.0,7.0,27,0.00,,---,0.00,VWS V14.01,2013-06-30 06:17:00,
2013-06-29 23:22:00,89.2,51.9,29.65,West,278,2.0,7.0,28,0.00,,---,0.00,VWS V14.01,2013-06-30 06:22:00,
2013-06-29 23:27:00,88.9,51.6,29.65,WSW,239,1.0,7.0,28,0.00,,---,0.00,VWS V14.01,2013-06-30 06:27:00,
2013-06-29 23:32:00,88.7,50.5,29.65,WNW,283,2.0,7.0,27,0.00,,---,0.00,VWS V14.01,2013-06-30 06:32:00,
2013-06-29 23:37:00,88.7,50.5,29.65,SW,227,4.0,8.0,27,0.00,,---,0.00,VWS V14.01,2013-06-30 06:37:00,
2013-06-29 23:42:00,88.5,49.3,29.65,West,265,4.0,8.0,26,0.00,,---,0.00,VWS V14.01,2013-06-30 06:42:00,
2013-06-29 23:47:00,88.4,49.2,29.65,WSW,246,2.0,8.0,26,0.00,,---,0.00,VWS V14.01,2013-06-30 06:47:00,
2013-06-29 23:52:00,88.2,49.0,29.65,WNW,297,2.0,8.0,26,0.00,,---,0.00,VWS V14.01,2013-06-30 06:52:00,
2013-06-29 23:57:00,88.1,47.9,29.65,West,269,4.0,8.0,25,0.00,,---,0.00,VWS V14.01,2013-06-30 06:57:00,